Hourly Weather Maceio

Today, 14 August, Friday

Time Temperature Precipitation Wind Pressure Humidity
00:00 +22°C° 0 mm 3 mps 761 mmHg 89%
01:00 +22°C° 0 mm 4 mps 761 mmHg 89%
02:00 +22°C° 0 mm 4 mps 761 mmHg 89%
03:00 +22°C° 0 mm 4 mps 760 mmHg 88%
04:00 +22°C° 0 mm 4 mps 760 mmHg 88%
05:00 +22°C° 0 mm 4 mps 760 mmHg 87%
06:00 +22°C° 0 mm 4 mps 761 mmHg 87%
07:00 +22°C° 0 mm 3 mps 761 mmHg 86%
08:00 +23°C° 0 mm 4 mps 761 mmHg 79%
09:00 +26°C° 0 mm 4 mps 761 mmHg 73%
10:00 +28°C° 0 mm 4 mps 761 mmHg 66%
11:00 +28°C° 0 mm 3 mps 761 mmHg 63%
12:00 +29°C° 0 mm 3 mps 761 mmHg 59%
13:00 +30°C° 0 mm 3 mps 761 mmHg 56%
14:00 +29°C° 0 mm 3 mps 760 mmHg 58%
15:00 +29°C° 0 mm 3 mps 759 mmHg 59%
16:00 +29°C° 0 mm 3 mps 759 mmHg 61%
17:00 +27°C° 0 mm 3 mps 759 mmHg 69%
18:00 +25°C° 0 mm 2 mps 760 mmHg 76%
19:00 +24°C° 0 mm 2 mps 760 mmHg 83%
20:00 +24°C° 0 mm 2 mps 760 mmHg 85%
21:00 +23°C° 0 mm 2 mps 760 mmHg 86%
22:00 +23°C° 0 mm 2 mps 761 mmHg 88%
23:00 +22°C° 0.2 mm 3 mps 761 mmHg 88%

Tomorrow, 15 August, Saturday

Time Temperature Precipitation Wind Pressure Humidity
00:00 +22°C° 0.2 mm 3 mps 761 mmHg 88%
01:00 +24°C° 0.2 mm 3 mps 761 mmHg 89%
02:00 +22°C° 0.1 mm 3 mps 760 mmHg 90%
03:00 +22°C° 0.1 mm 3 mps 760 mmHg 91%
04:00 +22°C° 0.1 mm 3 mps 759 mmHg 93%
05:00 +22°C° 0.1 mm 3 mps 760 mmHg 93%
06:00 +22°C° 0.1 mm 3 mps 760 mmHg 93%
07:00 +22°C° 0.1 mm 3 mps 760 mmHg 92%
08:00 +25°C° 0 mm 4 mps 760 mmHg 85%
09:00 +27°C° 0 mm 4 mps 760 mmHg 78%
10:00 +28°C° 0 mm 4 mps 761 mmHg 70%
11:00 +29°C° 0 mm 4 mps 760 mmHg 67%
12:00 +30°C° 0 mm 4 mps 760 mmHg 63%
13:00 +30°C° 0 mm 4 mps 760 mmHg 59%
14:00 +30°C° 0 mm 4 mps 759 mmHg 62%
15:00 +30°C° 0 mm 4 mps 759 mmHg 64%
16:00 +29°C° 0 mm 4 mps 758 mmHg 66%
17:00 +28°C° 0 mm 3 mps 758 mmHg 73%
18:00 +26°C° 0 mm 3 mps 759 mmHg 80%
19:00 +24°C° 0 mm 3 mps 759 mmHg 88%
20:00 +24°C° 0 mm 2 mps 759 mmHg 89%
21:00 +24°C° 0 mm 2 mps 760 mmHg 91%
22:00 +23°C° 0 mm 2 mps 760 mmHg 92%
23:00 +23°C° 0.1 mm 2 mps 760 mmHg 93%

Day after tomorrow, 16 August, Sunday

Time Temperature Precipitation Wind Pressure Humidity
00:00 +23°C° 0.1 mm 2 mps 760 mmHg 93%
01:00 +23°C° 0.1 mm 2 mps 760 mmHg 94%
02:00 +23°C° 0.3 mm 2 mps 760 mmHg 93%
03:00 +22°C° 0.3 mm 3 mps 759 mmHg 93%
04:00 +22°C° 0.3 mm 3 mps 759 mmHg 92%
05:00 +24°C° 0.5 mm 3 mps 759 mmHg 92%
06:00 +24°C° 0.5 mm 3 mps 759 mmHg 92%
07:00 +24°C° 0.5 mm 3 mps 759 mmHg 93%
08:00 +25°C° 0.7 mm 4 mps 760 mmHg 89%
09:00 +26°C° 0.7 mm 5 mps 760 mmHg 86%
10:00 +27°C° 0.7 mm 6 mps 760 mmHg 83%
11:00 +28°C° 0.5 mm 6 mps 760 mmHg 83%
12:00 +28°C° 0.5 mm 6 mps 760 mmHg 83%
13:00 +28°C° 0.5 mm 7 mps 760 mmHg 83%
14:00 +28°C° 0.3 mm 6 mps 759 mmHg 82%
15:00 +28°C° 0.3 mm 6 mps 759 mmHg 82%
16:00 +28°C° 0.3 mm 6 mps 758 mmHg 81%
17:00 +27°C° 0 mm 5 mps 758 mmHg 84%
18:00 +26°C° 0 mm 5 mps 758 mmHg 86%
19:00 +25°C° 0 mm 5 mps 758 mmHg 89%
20:00 +25°C° 0.1 mm 4 mps 759 mmHg 90%
21:00 +23°C° 0.1 mm 4 mps 760 mmHg 90%
22:00 +23°C° 0.1 mm 4 mps 760 mmHg 91%
23:00 +23°C° 0.1 mm 4 mps 760 mmHg 91%

17 August, Monday

Time Temperature Precipitation Wind Pressure Humidity
00:00 +23°C° 0.1 mm 4 mps 760 mmHg 91%
01:00 +23°C° 0.1 mm 4 mps 760 mmHg 91%
02:00 +23°C° 0.1 mm 4 mps 760 mmHg 91%
03:00 +22°C° 0.1 mm 3 mps 759 mmHg 91%
04:00 +22°C° 0.1 mm 3 mps 759 mmHg 90%
05:00 +22°C° 0 mm 3 mps 759 mmHg 91%
06:00 +22°C° 0 mm 4 mps 760 mmHg 91%
07:00 +22°C° 0 mm 4 mps 760 mmHg 91%
08:00 +25°C° 0 mm 4 mps 760 mmHg 83%
09:00 +27°C° 0 mm 4 mps 761 mmHg 75%
10:00 +28°C° 0 mm 4 mps 761 mmHg 67%
11:00 +29°C° 0 mm 4 mps 761 mmHg 64%
12:00 +29°C° 0 mm 4 mps 760 mmHg 60%
13:00 +30°C° 0 mm 4 mps 760 mmHg 57%
14:00 +30°C° 0 mm 4 mps 759 mmHg 58%
15:00 +29°C° 0 mm 3 mps 759 mmHg 58%
16:00 +29°C° 0 mm 3 mps 758 mmHg 59%
17:00 +27°C° 0 mm 3 mps 759 mmHg 67%
18:00 +26°C° 0 mm 3 mps 759 mmHg 75%
19:00 +24°C° 0 mm 3 mps 759 mmHg 84%
20:00 +24°C° 0.2 mm 3 mps 759 mmHg 86%
21:00 +23°C° 0.2 mm 4 mps 760 mmHg 89%
22:00 +22°C° 0.2 mm 4 mps 760 mmHg 91%
23:00 +22°C° 0.5 mm 4 mps 760 mmHg 91%

18 August, Tuesday

Time Temperature Precipitation Wind Pressure Humidity
00:00 +23°C° 0.5 mm 4 mps 760 mmHg 92%
01:00 +23°C° 0.5 mm 4 mps 759 mmHg 92%
02:00 +22°C° 0.6 mm 4 mps 759 mmHg 93%
03:00 +22°C° 0.6 mm 4 mps 759 mmHg 93%
04:00 +22°C° 0.6 mm 4 mps 758 mmHg 94%
05:00 +22°C° 0.4 mm 4 mps 758 mmHg 94%
06:00 +22°C° 0.4 mm 4 mps 759 mmHg 94%
07:00 +22°C° 0.4 mm 4 mps 759 mmHg 94%
08:00 +23°C° 0.4 mm 4 mps 759 mmHg 90%
09:00 +26°C° 0.4 mm 5 mps 760 mmHg 86%
10:00 +27°C° 0.4 mm 6 mps 760 mmHg 82%
11:00 +28°C° 0.2 mm 6 mps 760 mmHg 79%
12:00 +28°C° 0.2 mm 6 mps 759 mmHg 76%
13:00 +29°C° 0.2 mm 6 mps 759 mmHg 73%
14:00 +29°C° 0.1 mm 6 mps 759 mmHg 73%
15:00 +29°C° 0.1 mm 6 mps 758 mmHg 74%
16:00 +28°C° 0.1 mm 6 mps 758 mmHg 74%
17:00 +27°C° 0.1 mm 6 mps 758 mmHg 79%
18:00 +26°C° 0.1 mm 6 mps 759 mmHg 84%
19:00 +24°C° 0.1 mm 6 mps 759 mmHg 88%
20:00 +24°C° 0.4 mm 6 mps 759 mmHg 89%
21:00 +23°C° 0.4 mm 6 mps 760 mmHg 91%
22:00 +23°C° 0.4 mm 6 mps 760 mmHg 92%
23:00 +23°C° 0.6 mm 6 mps 760 mmHg 91%

19 August, Wednesday

Time Temperature Precipitation Wind Pressure Humidity
00:00 +23°C° 0.6 mm 6 mps 760 mmHg 91%
01:00 +23°C° 0.6 mm 6 mps 760 mmHg 90%
02:00 +23°C° 0.4 mm 6 mps 759 mmHg 90%
03:00 +23°C° 0.4 mm 6 mps 759 mmHg 90%
04:00 +23°C° 0.4 mm 5 mps 759 mmHg 91%
05:00 +23°C° 0.2 mm 5 mps 759 mmHg 91%
06:00 +23°C° 0.2 mm 5 mps 759 mmHg 91%
07:00 +23°C° 0.2 mm 5 mps 759 mmHg 91%
08:00 +25°C° 0.2 mm 5 mps 760 mmHg 87%
09:00 +26°C° 0.2 mm 5 mps 760 mmHg 83%
10:00 +27°C° 0.2 mm 5 mps 761 mmHg 79%
11:00 +27°C° 0.4 mm 5 mps 760 mmHg 80%
12:00 +27°C° 0.4 mm 5 mps 760 mmHg 80%
13:00 +28°C° 0.4 mm 6 mps 759 mmHg 80%
14:00 +28°C° 0 mm 5 mps 759 mmHg 75%
15:00 +28°C° 0 mm 5 mps 759 mmHg 71%
16:00 +29°C° 0 mm 5 mps 758 mmHg 67%
17:00 +27°C° 0 mm 5 mps 759 mmHg 73%
18:00 +26°C° 0 mm 4 mps 759 mmHg 79%
19:00 +23°C° 0 mm 4 mps 759 mmHg 86%
20:00 +23°C° 0 mm 4 mps 760 mmHg 87%
21:00 +23°C° 0 mm 4 mps 760 mmHg 89%
22:00 +22°C° 0 mm 3 mps 760 mmHg 91%
23:00 +22°C° 0 mm 3 mps 760 mmHg 91%
Show more